{"data":{"norad_id":37389,"intl_designator":"2011-015C","name":"X-SAT","alt_names":[],"object_type":"PAYLOAD","status":"ACTIVE","operator":null,"country":"SING","launch_date":"2011-04-20","launch_site_code":"SRILR","launch_vehicle":null,"mission":null,"orbit_class":"UNKNOWN","rcs_meters":0.4684,"size_class":null,"mass_kg":null,"dimensions":null,"purposes":["science"],"wikipedia_slug":null,"has_3d_model":false,"image_url":null,"decayed_at":null,"tle_current":{"epoch":"2026-05-25T04:45:17.254368Z","epoch_age_seconds":58051,"freshness":"FRESH","line1":"1 37389U 11015C   26145.19811637  .00000379  00000+0  17869-3 0  9994","line2":"2 37389  98.3502 123.3194 0015151  53.3479 306.9092 14.25199117784408","mean_motion":14.25199117,"eccentricity":0.0015151,"inclination_deg":98.3502,"raan_deg":123.3194,"arg_perigee_deg":53.3479,"mean_anomaly_deg":306.9092,"bstar":0.00017869,"rev_number":78440,"period_min":101.0385133434,"perigee_km":796.93581917018,"apogee_km":818.71071597297,"semimajor_km":7185.9602675716,"source":"CELESTRAK","updated_at":"2026-05-25T13:38:24.640313Z"}}}